This is the latest recevied weather packets stored in our database for station/object K1RFS. If no packets are shown the sender has not sent any weather packets the latest 10 day(s).
| Time | Temp. | Humidity | Pressure | Rain* | Wind** | Luminosity | Snow |
|---|---|---|---|---|---|---|---|
| 1788432626 | 17.22° C | 21% | 1000 hPa | 0 mm | - | 0 W/m² | - |
| 1788432325 | 17.22° C | 23% | 1000 hPa | 0 mm | - | 0 W/m² | - |
| 1788432022 | 17.22° C | 23% | 999.9 hPa | 0 mm | - | 0 W/m² | - |
| 1788431717 | 16.67° C | 22% | 999.8 hPa | 0 mm | - | 0 W/m² | - |
| 1788431414 | 16.67° C | 24% | 1000 hPa | 0 mm | - | 0 W/m² | - |
| 1788431108 | 16.11° C | 25% | 999.9 hPa | 0 mm | - | 0 W/m² | - |
| 1788430807 | 16.11° C | 24% | 999.8 hPa | 0 mm | - | 0 W/m² | - |
| 1788430502 | 15.56° C | 26% | 999.8 hPa | 0 mm | - | 0 W/m² | - |
| 1788430198 | 15.56° C | 26% | 999.7 hPa | 0 mm | - | 0 W/m² | - |
| 1788429892 | 15.56° C | 27% | 999.9 hPa | 0 mm | - | 0 W/m² | - |
| 1788429590 | 16.11° C | 27% | 999.4 hPa | 0 mm | - | 0 W/m² | - |
| 1788429290 | 15.56° C | 27% | 999.8 hPa | 0 mm | - | 0 W/m² | - |
| 1788428985 | 15.56° C | 26% | 999.7 hPa | 0 mm | - | 0 W/m² | - |
| 1788428684 | 15.56° C | 28% | 999.8 hPa | 0 mm | - | 0 W/m² | - |
| 1788428381 | 15.56° C | 28% | 999.7 hPa | 0 mm | - | 0 W/m² | - |
| 1788428075 | 15.56° C | 29% | 999.8 hPa | 0 mm | - | 0 W/m² | - |
| 1788427772 | 15.56° C | 29% | 999.7 hPa | 0 mm | - | 0 W/m² | - |
| 1788427471 | 15° C | 31% | 999.8 hPa | 0 mm | - | 0 W/m² | - |
| 1788427170 | 15° C | 31% | 999.9 hPa | 0 mm | - | 0 W/m² | - |
| 1788426868 | 14.44° C | 34% | 999.7 hPa | 0 mm | - | 0 W/m² | - |
| 1788426564 | 14.44° C | 37% | 999.8 hPa | 0 mm | - | 0 W/m² | - |
| 1788426259 | 15° C | 37% | 999.6 hPa | 0 mm | - | 0 W/m² | - |
| 1788425958 | 15° C | 36% | 999.8 hPa | 0 mm | - | 0 W/m² | - |
| 1788425656 | 15° C | 36% | 999.6 hPa | 0 mm | - | 0 W/m² | - |
| 1788425356 | 15° C | 36% | 999.8 hPa | 0 mm | - | 0 W/m² | - |
* Rain latest hour (hover to see other rain measurements)
** Current wind speed in m/s (hover to see current wind gust speed)